Lid_Strength_Index
-1 -1 -0 -1 -1 -1 -1 -1 -1 -1 -1 -1 -0 -1 -0 0 0 2 4 1 3 -1 2 6 6 7 7 9 8 7 12 14 12 11 11 11 11 10 7 6 6 5 5 4 2
-1 -1 -1 -1 -1 -1 -1 -2 -2 -2 -1 -1 -1 -2 -0 0 3 4 -0 -1 -1 -0 5 7 7 7 9 9 9 10 11 12 9 10 11 10 11 10 9 7 7 7 4 3 2
-1 -1 -1 -1 -1 -1 -1 -1 -1 -2 -1 -1 -1 -1 -1 -0 5 5 -1 -1 -1 -0 3 5 6 7 10 9 9 10 11 8 8 11 11 10 10 10 10 10 7 7 6 4 4
-1 -1 -1 -1 -1 -0 -1 -1 -1 -1 -2 -1 -1 -1 -1 1 11 3 -1 -1 -1 -0 2 5 6 8 10 10 9 11 8 8 7 10 11 11 10 10 10 9 6 5 4 4 4
-1 -1 -1 -1 -1 -1 -1 -1 -1 -1 -2 -1 -1 -1 1 5 5 1 -1 -1 1 2 3 5 8 8 10 9 8 9 9 7 7 10 11 11 12 11 11 9 8 4 4 5 4
-1 -1 -1 -1 -1 -1 -1 -0 -1 -1 -1 -2 -1 -1 3 8 0 -0 0 0 1 2 3 5 7 7 9 8 9 8 7 7 9 11 11 12 13 12 11 10 9 5 5 5 4
-1 -1 -1 -1 -1 -1 -1 -1 -1 -1 -1 -1 -1 0 4 5 1 1 0 1 1 2 4 3 4 7 9 10 6 8 10 8 8 12 12 12 14 13 11 11 10 6 5 5 4
-1 -1 -1 -1 -1 -1 -1 -1 -1 -1 -1 -1 -1 2 6 1 0 1 2 3 1 1 2 2 3 5 7 7 9 10 10 13 12 13 13 13 14 12 11 12 12 11 6 5 4
-1 -1 -1 -1 -1 -1 -1 -1 -1 -1 -1 -1 1 3 7 -0 3 1 1 3 2 2 2 2 4 6 7 11 14 11 14 15 14 13 13 14 15 12 11 12 12 12 10 6 5
-1 -1 -1 -1 -1 -1 -1 -1 -1 -0 -0 -0 1 6 4 6 3 2 1 1 4 4 5 6 8 10 10 12 17 15 14 13 13 13 14 15 15 12 11 12 11 12 10 8 6
-1 -1 -1 -1 -1 -1 0 3 5 7 4 7 6 7 5 3 1 3 2 3 4 6 10 8 11 14 12 12 13 13 13 13 12 10 14 14 14 13 11 12 13 12 12 10 7
-1 -1 -1 -1 -1 -1 1 6 6 5 9 5 5 5 4 3 7 5 2 7 8 11 9 11 14 10 10 10 11 13 13 13 11 9 12 13 13 11 12 11 11 12 12 11 8
-0 -1 -1 -1 -1 0 2 4 2 3 9 7 6 6 5 4 7 7 4 6 9 11 11 13 11 8 10 12 12 12 14 13 12 13 14 15 15 13 11 10 11 11 10 11 9
-0 -1 -1 -1 1 2 3 1 1 2 15 13 9 6 6 5 8 4 3 6 9 11 11 11 8 10 11 12 11 15 11 12 12 14 17 14 18 14 11 11 10 11 11 11 11
1 -0 -1 -1 3 4 2 0 2 5 25 12 9 4 5 7 8 7 3 6 10 11 10 12 11 11 13 12 10 12 10 11 12 14 17 17 18 16 12 12 11 11 11 11 11
1 -0 -1 2 2 2 0 1 4 14 22 14 9 9 9 8 8 7 7 5 6 10 9 10 9 9 10 9 9 9 11 13 14 15 17 17 16 18 15 12 11 10 12 11 12
2 -0 1 2 5 1 1 4 13 18 14 15 12 10 10 11 10 9 10 11 13 15 15 13 12 9 9 12 10 11 15 19 20 20 20 18 19 15 13 13 11 11 12 12 11
1 0 1 2 1 1 3 9 19 18 16 9 10 10 12 10 11 10 11 13 10 11 14 16 17 13 10 11 13 13 15 18 22 22 22 21 20 16 12 10 12 12 12 12 12
1 2 3 2 1 1 7 15 17 17 11 12 11 13 13 11 11 12 12 12 11 10 14 16 15 11 11 11 11 15 16 12 19 23 22 21 19 15 13 13 13 13 13 13 13
3 3 4 1 1 4 10 14 15 9 9 10 15 13 18 13 13 13 13 10 11 9 8 12 16 12 11 10 10 13 12 17 18 24 25 22 21 18 15 14 14 14 13 13 13
3 8 4 1 2 7 13 14 13 8 8 11 12 13 13 13 13 13 13 11 9 10 8 9 12 15 13 14 15 15 16 16 16 19 23 24 21 16 15 14 14 14 13 13 13
7 11 3 2 10 9 14 13 10 10 8 10 9 11 12 12 13 13 13 11 8 8 12 10 14 17 15 13 12 13 15 15 19 21 21 21 20 16 15 15 14 14 14 13 13
11 9 4 4 13 13 12 12 11 11 11 10 11 10 9 11 14 12 12 8 8 9 10 10 14 19 17 16 15 15 14 14 14 18 21 21 20 16 15 16 15 14 14 13 13
9 11 8 7 11 12 14 14 14 10 11 9 10 9 11 12 10 13 12 9 8 8 8 9 14 14 18 17 16 17 15 14 15 20 21 19 18 17 16 15 14 14 14 13 13
10 12 10 12 14 12 12 13 14 14 11 10 10 10 11 13 12 13 11 10 9 8 8 10 15 14 15 13 14 15 15 15 16 16 18 17 17 16 15 15 14 14 13 13 12
11 11 11 11 11 13 12 15 14 13 12 13 12 10 10 12 12 13 11 11 12 10 11 10 15 16 17 15 14 16 15 14 14 14 15 15 15 13 13 14 14 13 13 12 12
8 8 10 10 13 13 13 13 13 11 11 9 10 10 10 11 9 9 9 10 9 11 12 12 15 15 17 17 16 19 16 15 15 13 14 17 14 14 14 14 13 13 12 13 13